Overview Statistics Trail Chart Weather Telemetry Raw packets
 

This is the latest recevied weather packets stored in our database for station/object K1BES. If no packets are shown the sender has not sent any weather packets the latest 10 day(s).

<< 36 37 38 39 40 41 42 >>
Time Temp. Humidity Pressure Rain* Wind** Luminosity Snow
1788398083 25.56° C 89% 1016.6 hPa 0 mm - 0 W/m² -
1788397778 26.11° C 89% 1016.4 hPa 0 mm - 0 W/m² -
1788397473 26.11° C 89% 1016.5 hPa 0 mm - 0 W/m² -
1788397171 26.11° C 88% 1016.5 hPa 0 mm - 0 W/m² -
1788396867 26.11° C 88% 1016.7 hPa 0 mm - 0 W/m² -
1788396563 26.11° C 87% 1016.4 hPa 0 mm - 0 W/m² -
1788396258 26.67° C 87% 1016.1 hPa 0 mm - 0 W/m² -
1788395954 26.67° C 87% 1015.8 hPa 0 mm - 0 W/m² -
1788395653 26.67° C 86% 1015.8 hPa 0 mm - 0 W/m² -
1788395354 26.67° C 86% 1015.4 hPa 0 mm - 0 W/m² -
1788395049 26.67° C 86% 1015.8 hPa 0 mm - 0 W/m² -
1788394748 26.67° C 85% 1015.9 hPa 0 mm - 0 W/m² -
1788394443 27.22° C 86% 1015.7 hPa 0 mm - 0 W/m² -
1788394143 27.22° C 86% 1015.8 hPa 0 mm - 0 W/m² -
1788393838 27.78° C 87% 1016 hPa 0 mm - 0 W/m² -
1788393536 27.78° C 87% 1015.9 hPa 0 mm - 0 W/m² -
1788393232 27.78° C 86% 1015.8 hPa 0 mm - 1 W/m² -
1788392932 28.33° C 87% 1015.7 hPa 0 mm - 1 W/m² -
1788392632 28.33° C 87% 1015.8 hPa 0 mm - 2 W/m² -
1788392330 27.78° C 88% 1015.4 hPa 0 mm - 6 W/m² -
1788392025 27.78° C 88% 1015.6 hPa 0 mm - 8 W/m² -
1788391723 27.78° C 88% 1015.7 hPa 0 mm - 11 W/m² -
1788391419 27.78° C 88% 1015.8 hPa 0 mm - 18 W/m² -
1788391118 27.78° C 88% 1015.6 hPa 0 mm - 26 W/m² -
1788390813 27.78° C 87% 1015.7 hPa 0 mm - 31 W/m² -

* Rain latest hour (hover to see other rain measurements)
** Current wind speed in m/s (hover to see current wind gust speed)